![]() |
EMODnet Physics ERDDAP
Easier access to scientific data |
log in|
Brought to you by EMODnet Physics |
| Dataset Title: | NDBC - Collection of dew point temperature (DEWT) TimeSeries - IN SITU MultiPointTimeSeriesObservation
|
| Institution: | NDBC (Dataset ID: TS_DEWT_NDBC) |
| Information: | Summary
| License
| FGDC
| ISO 19115
| Metadata
| Background
| Subset
| Data Access Form
| Make a graph
|
| Name | Last modified | Size | Description | |
|---|---|---|---|---|
| Parent Directory | - | - | ||
| THRO1_TS_DEWT_012006.nc | 09-Dec-2024 04:42 | 428609 | ||
| THRO1_TS_DEWT_012007.nc | 09-Dec-2024 04:47 | 447551 | ||
| THRO1_TS_DEWT_012008.nc | 09-Dec-2024 04:51 | 448263 | ||
| THRO1_TS_DEWT_012009.nc | 09-Dec-2024 04:56 | 448073 | ||
| THRO1_TS_DEWT_012010.nc | 09-Dec-2024 05:02 | 447304 | ||
| THRO1_TS_DEWT_012011.nc | 09-Dec-2024 05:07 | 428746 | ||
| THRO1_TS_DEWT_012012.nc | 09-Dec-2024 05:12 | 448688 | ||
| THRO1_TS_DEWT_012013.nc | 09-Dec-2024 05:18 | 447079 | ||
| THRO1_TS_DEWT_012014.nc | 09-Dec-2024 05:23 | 446994 | ||
| THRO1_TS_DEWT_012015.nc | 09-Dec-2024 05:30 | 446867 | ||
| THRO1_TS_DEWT_012016.nc | 09-Dec-2024 05:36 | 448996 | ||
| THRO1_TS_DEWT_012017.nc | 09-Dec-2024 05:41 | 447052 | ||
| THRO1_TS_DEWT_012018.nc | 09-Dec-2024 05:47 | 428798 | ||
| THRO1_TS_DEWT_012019.nc | 09-Dec-2024 05:53 | 446722 | ||
| THRO1_TS_DEWT_012020.nc | 09-Dec-2024 05:58 | 429151 | ||
| THRO1_TS_DEWT_012021.nc | 09-Dec-2024 06:17 | 428796 | ||
| THRO1_TS_DEWT_012022.nc | 09-Dec-2024 06:27 | 428804 | ||
| THRO1_TS_DEWT_012023.nc | 09-Dec-2024 06:45 | 428802 | ||
| THRO1_TS_DEWT_012025.nc | 07-Feb-2025 15:11 | 429147 | ||
| THRO1_TS_DEWT_012026.nc | 02-Feb-2026 15:03 | 428788 | ||
| THRO1_TS_DEWT_022005.nc | 09-Dec-2024 04:39 | 428799 | ||
| THRO1_TS_DEWT_022006.nc | 09-Dec-2024 04:42 | 428802 | ||
| THRO1_TS_DEWT_022007.nc | 09-Dec-2024 04:47 | 419272 | ||
| THRO1_TS_DEWT_022008.nc | 09-Dec-2024 04:52 | 429601 | ||
| THRO1_TS_DEWT_022009.nc | 09-Dec-2024 04:57 | 429555 | ||
| THRO1_TS_DEWT_022010.nc | 09-Dec-2024 05:02 | 429615 | ||
| THRO1_TS_DEWT_022011.nc | 09-Dec-2024 05:08 | 429607 | ||
| THRO1_TS_DEWT_022012.nc | 09-Dec-2024 05:13 | 429590 | ||
| THRO1_TS_DEWT_022013.nc | 09-Dec-2024 05:18 | 429616 | ||
| THRO1_TS_DEWT_022014.nc | 09-Dec-2024 05:24 | 429618 | ||
| THRO1_TS_DEWT_022015.nc | 09-Dec-2024 05:30 | 429595 | ||
| THRO1_TS_DEWT_022016.nc | 09-Dec-2024 05:36 | 429524 | ||
| THRO1_TS_DEWT_022017.nc | 09-Dec-2024 05:42 | 428635 | ||
| THRO1_TS_DEWT_022018.nc | 09-Dec-2024 05:47 | 429611 | ||
| THRO1_TS_DEWT_022019.nc | 09-Dec-2024 05:53 | 429613 | ||
| THRO1_TS_DEWT_022020.nc | 09-Dec-2024 06:00 | 451684 | ||
| THRO1_TS_DEWT_022021.nc | 09-Dec-2024 06:19 | 449088 | ||
| THRO1_TS_DEWT_022022.nc | 09-Dec-2024 06:28 | 429607 | ||
| THRO1_TS_DEWT_022023.nc | 09-Dec-2024 06:45 | 450536 | ||
| THRO1_TS_DEWT_022025.nc | 01-Mar-2025 10:15 | 429607 | ||
| THRO1_TS_DEWT_022026.nc | 01-Mar-2026 16:00 | 429607 | ||
| THRO1_TS_DEWT_032005.nc | 09-Dec-2024 04:40 | 451444 | ||
| THRO1_TS_DEWT_032006.nc | 09-Dec-2024 04:42 | 449595 | ||
| THRO1_TS_DEWT_032007.nc | 09-Dec-2024 04:47 | 451597 | ||
| THRO1_TS_DEWT_032008.nc | 09-Dec-2024 04:52 | 450272 | ||
| THRO1_TS_DEWT_032009.nc | 09-Dec-2024 04:57 | 429809 | ||
| THRO1_TS_DEWT_032010.nc | 09-Dec-2024 05:03 | 450424 | ||
| THRO1_TS_DEWT_032011.nc | 09-Dec-2024 05:08 | 450551 | ||
| THRO1_TS_DEWT_032012.nc | 09-Dec-2024 05:13 | 451098 | ||
| THRO1_TS_DEWT_032013.nc | 09-Dec-2024 05:19 | 450776 | ||
| THRO1_TS_DEWT_032014.nc | 09-Dec-2024 05:25 | 451696 | ||
| THRO1_TS_DEWT_032015.nc | 09-Dec-2024 05:31 | 450405 | ||
| THRO1_TS_DEWT_032016.nc | 09-Dec-2024 05:37 | 429829 | ||
| THRO1_TS_DEWT_032017.nc | 09-Dec-2024 05:42 | 450118 | ||
| THRO1_TS_DEWT_032018.nc | 09-Dec-2024 05:48 | 429831 | ||
| THRO1_TS_DEWT_032019.nc | 09-Dec-2024 05:54 | 429829 | ||
| THRO1_TS_DEWT_032020.nc | 09-Dec-2024 06:02 | 429837 | ||
| THRO1_TS_DEWT_032021.nc | 09-Dec-2024 06:21 | 429803 | ||
| THRO1_TS_DEWT_032022.nc | 09-Dec-2024 06:29 | 429831 | ||
| THRO1_TS_DEWT_032023.nc | 09-Dec-2024 06:46 | 427464 | ||
| THRO1_TS_DEWT_032025.nc | 02-Apr-2025 08:17 | 429812 | ||
| THRO1_TS_DEWT_032026.nc | 24-Mar-2026 16:02 | 429835 | ||
| THRO1_TS_DEWT_042005.nc | 09-Dec-2024 04:40 | 429268 | ||
| THRO1_TS_DEWT_042006.nc | 09-Dec-2024 04:43 | 429268 | ||
| THRO1_TS_DEWT_042007.nc | 09-Dec-2024 04:48 | 429280 | ||
| THRO1_TS_DEWT_042008.nc | 09-Dec-2024 04:52 | 429288 | ||
| THRO1_TS_DEWT_042009.nc | 09-Dec-2024 04:58 | 429284 | ||
| THRO1_TS_DEWT_042010.nc | 09-Dec-2024 05:03 | 429258 | ||
| THRO1_TS_DEWT_042011.nc | 09-Dec-2024 05:08 | 429284 | ||
| THRO1_TS_DEWT_042012.nc | 09-Dec-2024 05:14 | 429287 | ||
| THRO1_TS_DEWT_042013.nc | 09-Dec-2024 05:19 | 429278 | ||
| THRO1_TS_DEWT_042014.nc | 09-Dec-2024 05:25 | 428697 | ||
| THRO1_TS_DEWT_042015.nc | 09-Dec-2024 05:31 | 429292 | ||
| THRO1_TS_DEWT_042016.nc | 09-Dec-2024 05:37 | 429280 | ||
| THRO1_TS_DEWT_042017.nc | 09-Dec-2024 05:43 | 450282 | ||
| THRO1_TS_DEWT_042018.nc | 09-Dec-2024 05:48 | 449273 | ||
| THRO1_TS_DEWT_042019.nc | 09-Dec-2024 05:54 | 429286 | ||
| THRO1_TS_DEWT_042020.nc | 09-Dec-2024 06:04 | 449888 | ||
| THRO1_TS_DEWT_042021.nc | 09-Dec-2024 06:23 | 429285 | ||
| THRO1_TS_DEWT_042022.nc | 09-Dec-2024 06:29 | 429284 | ||
| THRO1_TS_DEWT_042023.nc | 09-Dec-2024 06:46 | 449475 | ||
| THRO1_TS_DEWT_042025.nc | 01-May-2025 07:36 | 448929 | ||
| THRO1_TS_DEWT_052005.nc | 09-Dec-2024 04:40 | 450054 | ||
| THRO1_TS_DEWT_052006.nc | 09-Dec-2024 04:43 | 449559 | ||
| THRO1_TS_DEWT_052007.nc | 09-Dec-2024 04:48 | 429472 | ||
| THRO1_TS_DEWT_052008.nc | 09-Dec-2024 04:53 | 449833 | ||
| THRO1_TS_DEWT_052009.nc | 09-Dec-2024 04:58 | 449567 | ||
| THRO1_TS_DEWT_052010.nc | 09-Dec-2024 05:03 | 449074 | ||
| THRO1_TS_DEWT_052011.nc | 09-Dec-2024 05:09 | 449465 | ||
| THRO1_TS_DEWT_052012.nc | 09-Dec-2024 05:14 | 449021 | ||
| THRO1_TS_DEWT_052013.nc | 09-Dec-2024 05:20 | 448742 | ||
| THRO1_TS_DEWT_052014.nc | 09-Dec-2024 05:26 | 445475 | ||
| THRO1_TS_DEWT_052015.nc | 09-Dec-2024 05:32 | 448579 | ||
| THRO1_TS_DEWT_052016.nc | 09-Dec-2024 05:38 | 429490 | ||
| THRO1_TS_DEWT_052017.nc | 09-Dec-2024 05:43 | 429491 | ||
| THRO1_TS_DEWT_052018.nc | 09-Dec-2024 05:49 | 418799 | ||
| THRO1_TS_DEWT_052019.nc | 09-Dec-2024 05:55 | 429492 | ||
| THRO1_TS_DEWT_052020.nc | 09-Dec-2024 06:05 | 429489 | ||
| THRO1_TS_DEWT_052021.nc | 09-Dec-2024 06:23 | 429468 | ||
| THRO1_TS_DEWT_052022.nc | 09-Dec-2024 06:30 | 429492 | ||
| THRO1_TS_DEWT_052023.nc | 09-Dec-2024 06:47 | 429487 | ||
| THRO1_TS_DEWT_052025.nc | 01-Jun-2025 08:52 | 429601 | ||
| THRO1_TS_DEWT_062005.nc | 09-Dec-2024 04:41 | 429563 | ||
| THRO1_TS_DEWT_062006.nc | 09-Dec-2024 04:44 | 429613 | ||
| THRO1_TS_DEWT_062007.nc | 09-Dec-2024 04:49 | 429607 | ||
| THRO1_TS_DEWT_062008.nc | 09-Dec-2024 04:53 | 429617 | ||
| THRO1_TS_DEWT_062009.nc | 09-Dec-2024 04:59 | 429615 | ||
| THRO1_TS_DEWT_062010.nc | 09-Dec-2024 05:04 | 429606 | ||
| THRO1_TS_DEWT_062011.nc | 09-Dec-2024 05:09 | 429611 | ||
| THRO1_TS_DEWT_062012.nc | 09-Dec-2024 05:15 | 429621 | ||
| THRO1_TS_DEWT_062013.nc | 09-Dec-2024 05:20 | 423392 | ||
| THRO1_TS_DEWT_062014.nc | 09-Dec-2024 05:26 | 429607 | ||
| THRO1_TS_DEWT_062015.nc | 09-Dec-2024 05:32 | 429620 | ||
| THRO1_TS_DEWT_062016.nc | 09-Dec-2024 05:38 | 451438 | ||
| THRO1_TS_DEWT_062017.nc | 09-Dec-2024 05:44 | 449893 | ||
| THRO1_TS_DEWT_062018.nc | 09-Dec-2024 05:49 | 429613 | ||
| THRO1_TS_DEWT_062019.nc | 09-Dec-2024 05:55 | 450956 | ||
| THRO1_TS_DEWT_062020.nc | 09-Dec-2024 06:07 | 429606 | ||
| THRO1_TS_DEWT_062021.nc | 09-Dec-2024 06:24 | 429614 | ||
| THRO1_TS_DEWT_062022.nc | 09-Dec-2024 06:31 | 451160 | ||
| THRO1_TS_DEWT_062023.nc | 09-Dec-2024 06:47 | 451029 | ||
| THRO1_TS_DEWT_062025.nc | 01-Jul-2025 07:17 | 450380 | ||
| THRO1_TS_DEWT_072005.nc | 09-Dec-2024 04:41 | 449892 | ||
| THRO1_TS_DEWT_072006.nc | 09-Dec-2024 04:44 | 429815 | ||
| THRO1_TS_DEWT_072007.nc | 09-Dec-2024 04:49 | 449858 | ||
| THRO1_TS_DEWT_072008.nc | 09-Dec-2024 04:54 | 450697 | ||
| THRO1_TS_DEWT_072009.nc | 09-Dec-2024 04:59 | 451306 | ||
| THRO1_TS_DEWT_072010.nc | 09-Dec-2024 05:04 | 449474 | ||
| THRO1_TS_DEWT_072011.nc | 09-Dec-2024 05:10 | 450248 | ||
| THRO1_TS_DEWT_072012.nc | 09-Dec-2024 05:15 | 451048 | ||
| THRO1_TS_DEWT_072013.nc | 09-Dec-2024 05:20 | 449503 | ||
| THRO1_TS_DEWT_072014.nc | 09-Dec-2024 05:27 | 449638 | ||
| THRO1_TS_DEWT_072015.nc | 09-Dec-2024 05:33 | 429829 | ||
| THRO1_TS_DEWT_072016.nc | 09-Dec-2024 05:38 | 429835 | ||
| THRO1_TS_DEWT_072017.nc | 09-Dec-2024 05:44 | 429833 | ||
| THRO1_TS_DEWT_072018.nc | 09-Dec-2024 05:50 | 429830 | ||
| THRO1_TS_DEWT_072019.nc | 09-Dec-2024 05:55 | 429837 | ||
| THRO1_TS_DEWT_072020.nc | 09-Dec-2024 06:08 | 429829 | ||
| THRO1_TS_DEWT_072021.nc | 09-Dec-2024 06:24 | 429833 | ||
| THRO1_TS_DEWT_072022.nc | 09-Dec-2024 06:33 | 429827 | ||
| THRO1_TS_DEWT_072023.nc | 09-Dec-2024 06:48 | 429267 | ||
| THRO1_TS_DEWT_072025.nc | 01-Aug-2025 07:54 | 429271 | ||
| THRO1_TS_DEWT_082005.nc | 09-Dec-2024 04:41 | 429283 | ||
| THRO1_TS_DEWT_082006.nc | 09-Dec-2024 04:44 | 429285 | ||
| THRO1_TS_DEWT_082007.nc | 09-Dec-2024 04:49 | 429275 | ||
| THRO1_TS_DEWT_082008.nc | 09-Dec-2024 04:54 | 429244 | ||
| THRO1_TS_DEWT_082009.nc | 09-Dec-2024 05:00 | 429287 | ||
| THRO1_TS_DEWT_082010.nc | 09-Dec-2024 05:05 | 429278 | ||
| THRO1_TS_DEWT_082011.nc | 09-Dec-2024 05:10 | 429282 | ||
| THRO1_TS_DEWT_082012.nc | 09-Dec-2024 05:16 | 429291 | ||
| THRO1_TS_DEWT_082013.nc | 09-Dec-2024 05:21 | 429287 | ||
| THRO1_TS_DEWT_082014.nc | 09-Dec-2024 05:27 | 429286 | ||
| THRO1_TS_DEWT_082015.nc | 09-Dec-2024 05:33 | 448421 | ||
| THRO1_TS_DEWT_082016.nc | 09-Dec-2024 05:39 | 437055 | ||
| THRO1_TS_DEWT_082017.nc | 09-Dec-2024 05:45 | 429281 | ||
| THRO1_TS_DEWT_082018.nc | 09-Dec-2024 05:50 | 450191 | ||
| THRO1_TS_DEWT_082019.nc | 09-Dec-2024 05:56 | 429289 | ||
| THRO1_TS_DEWT_082020.nc | 09-Dec-2024 06:08 | 429276 | ||
| THRO1_TS_DEWT_082021.nc | 09-Dec-2024 06:25 | 449693 | ||
| THRO1_TS_DEWT_082022.nc | 09-Dec-2024 06:35 | 449202 | ||
| THRO1_TS_DEWT_082023.nc | 09-Dec-2024 06:49 | 449066 | ||
| THRO1_TS_DEWT_082025.nc | 01-Sep-2025 09:02 | 448889 | ||
| THRO1_TS_DEWT_092005.nc | 09-Dec-2024 04:41 | 429474 | ||
| THRO1_TS_DEWT_092006.nc | 09-Dec-2024 04:45 | 449204 | ||
| THRO1_TS_DEWT_092007.nc | 09-Dec-2024 04:50 | 448650 | ||
| THRO1_TS_DEWT_092008.nc | 09-Dec-2024 04:55 | 448588 | ||
| THRO1_TS_DEWT_092009.nc | 09-Dec-2024 05:00 | 448565 | ||
| THRO1_TS_DEWT_092010.nc | 09-Dec-2024 05:05 | 448934 | ||
| THRO1_TS_DEWT_092011.nc | 09-Dec-2024 05:11 | 449214 | ||
| THRO1_TS_DEWT_092012.nc | 09-Dec-2024 05:16 | 449400 | ||
| THRO1_TS_DEWT_092013.nc | 09-Dec-2024 05:21 | 429490 | ||
| THRO1_TS_DEWT_092014.nc | 09-Dec-2024 05:28 | 429494 | ||
| THRO1_TS_DEWT_092015.nc | 09-Dec-2024 05:34 | 429484 | ||
| THRO1_TS_DEWT_092016.nc | 09-Dec-2024 05:40 | 429491 | ||
| THRO1_TS_DEWT_092017.nc | 09-Dec-2024 05:45 | 429478 | ||
| THRO1_TS_DEWT_092018.nc | 09-Dec-2024 05:51 | 429484 | ||
| THRO1_TS_DEWT_092019.nc | 09-Dec-2024 05:56 | 429491 | ||
| THRO1_TS_DEWT_092020.nc | 09-Dec-2024 06:10 | 429489 | ||
| THRO1_TS_DEWT_092021.nc | 09-Dec-2024 06:25 | 429488 | ||
| THRO1_TS_DEWT_092022.nc | 09-Dec-2024 06:37 | 429600 | ||
| THRO1_TS_DEWT_092023.nc | 09-Dec-2024 06:49 | 429594 | ||
| THRO1_TS_DEWT_092025.nc | 01-Oct-2025 09:40 | 429606 | ||
| THRO1_TS_DEWT_102005.nc | 09-Dec-2024 04:41 | 429593 | ||
| THRO1_TS_DEWT_102006.nc | 09-Dec-2024 04:45 | 429613 | ||
| THRO1_TS_DEWT_102007.nc | 09-Dec-2024 04:50 | 429587 | ||
| THRO1_TS_DEWT_102008.nc | 09-Dec-2024 04:55 | 429608 | ||
| THRO1_TS_DEWT_102009.nc | 09-Dec-2024 05:01 | 429615 | ||
| THRO1_TS_DEWT_102010.nc | 09-Dec-2024 05:06 | 429606 | ||
| THRO1_TS_DEWT_102011.nc | 09-Dec-2024 05:11 | 429584 | ||
| THRO1_TS_DEWT_102012.nc | 09-Dec-2024 05:17 | 429204 | ||
| THRO1_TS_DEWT_102013.nc | 09-Dec-2024 05:22 | 429608 | ||
| THRO1_TS_DEWT_102014.nc | 09-Dec-2024 05:28 | 451007 | ||
| THRO1_TS_DEWT_102015.nc | 09-Dec-2024 05:34 | 429618 | ||
| THRO1_TS_DEWT_102016.nc | 09-Dec-2024 05:40 | 429619 | ||
| THRO1_TS_DEWT_102017.nc | 09-Dec-2024 05:45 | 450930 | ||
| THRO1_TS_DEWT_102018.nc | 09-Dec-2024 05:51 | 443499 | ||
| THRO1_TS_DEWT_102019.nc | 09-Dec-2024 05:57 | 429619 | ||
| THRO1_TS_DEWT_102020.nc | 09-Dec-2024 06:12 | 449033 | ||
| THRO1_TS_DEWT_102021.nc | 09-Dec-2024 06:26 | 450201 | ||
| THRO1_TS_DEWT_102022.nc | 09-Dec-2024 06:39 | 451076 | ||
| THRO1_TS_DEWT_102023.nc | 09-Dec-2024 06:50 | 449558 | ||
| THRO1_TS_DEWT_102025.nc | 01-Nov-2025 09:11 | 429835 | ||
| THRO1_TS_DEWT_112005.nc | 09-Dec-2024 04:41 | 449184 | ||
| THRO1_TS_DEWT_112006.nc | 09-Dec-2024 04:46 | 450741 | ||
| THRO1_TS_DEWT_112007.nc | 09-Dec-2024 04:50 | 449241 | ||
| THRO1_TS_DEWT_112008.nc | 09-Dec-2024 04:56 | 449866 | ||
| THRO1_TS_DEWT_112009.nc | 09-Dec-2024 05:01 | 449434 | ||
| THRO1_TS_DEWT_112010.nc | 09-Dec-2024 05:06 | 429831 | ||
| THRO1_TS_DEWT_112011.nc | 09-Dec-2024 05:12 | 445936 | ||
| THRO1_TS_DEWT_112012.nc | 09-Dec-2024 05:17 | 429831 | ||
| THRO1_TS_DEWT_112013.nc | 09-Dec-2024 05:22 | 443868 | ||
| THRO1_TS_DEWT_112014.nc | 09-Dec-2024 05:29 | 429831 | ||
| THRO1_TS_DEWT_112015.nc | 09-Dec-2024 05:35 | 429833 | ||
| THRO1_TS_DEWT_112016.nc | 09-Dec-2024 05:40 | 429826 | ||
| THRO1_TS_DEWT_112017.nc | 09-Dec-2024 05:46 | 429831 | ||
| THRO1_TS_DEWT_112018.nc | 09-Dec-2024 05:52 | 429703 | ||
| THRO1_TS_DEWT_112019.nc | 09-Dec-2024 05:57 | 429829 | ||
| THRO1_TS_DEWT_112020.nc | 09-Dec-2024 06:14 | 429835 | ||
| THRO1_TS_DEWT_112021.nc | 09-Dec-2024 06:26 | 429595 | ||
| THRO1_TS_DEWT_112022.nc | 09-Dec-2024 06:41 | 429557 | ||
| THRO1_TS_DEWT_112023.nc | 09-Dec-2024 06:50 | 429616 | ||
| THRO1_TS_DEWT_112024.nc | 17-Jan-2025 20:51 | 429608 | ||
| THRO1_TS_DEWT_112025.nc | 01-Dec-2025 11:08 | 429612 | ||
| THRO1_TS_DEWT_122005.nc | 09-Dec-2024 04:41 | 429613 | ||
| THRO1_TS_DEWT_122006.nc | 09-Dec-2024 04:46 | 429585 | ||
| THRO1_TS_DEWT_122007.nc | 09-Dec-2024 04:51 | 429599 | ||
| THRO1_TS_DEWT_122008.nc | 09-Dec-2024 04:56 | 429617 | ||
| THRO1_TS_DEWT_122009.nc | 09-Dec-2024 05:01 | 429606 | ||
| THRO1_TS_DEWT_122010.nc | 09-Dec-2024 05:07 | 428176 | ||
| THRO1_TS_DEWT_122011.nc | 09-Dec-2024 05:12 | 429614 | ||
| THRO1_TS_DEWT_122012.nc | 09-Dec-2024 05:17 | 451133 | ||
| THRO1_TS_DEWT_122013.nc | 09-Dec-2024 05:23 | 429607 | ||
| THRO1_TS_DEWT_122014.nc | 09-Dec-2024 05:29 | 429618 | ||
| THRO1_TS_DEWT_122015.nc | 09-Dec-2024 05:35 | 450211 | ||
| THRO1_TS_DEWT_122016.nc | 09-Dec-2024 05:41 | 433724 | ||
| THRO1_TS_DEWT_122017.nc | 09-Dec-2024 05:46 | 445395 | ||
| THRO1_TS_DEWT_122018.nc | 09-Dec-2024 05:52 | 451118 | ||
| THRO1_TS_DEWT_122019.nc | 09-Dec-2024 05:58 | 450315 | ||
| THRO1_TS_DEWT_122020.nc | 09-Dec-2024 06:15 | 449813 | ||
| THRO1_TS_DEWT_122021.nc | 09-Dec-2024 06:27 | 450132 | ||
| THRO1_TS_DEWT_122022.nc | 09-Dec-2024 06:43 | 429829 | ||
| THRO1_TS_DEWT_122023.nc | 09-Dec-2024 06:51 | 451198 | ||
| THRO1_TS_DEWT_122024.nc | 22-Jan-2025 20:35 | 450151 | ||
| THRO1_TS_DEWT_122025.nc | 01-Jan-2026 10:43 | 450351 | ||